This is the latest recevied weather packets stored in our database for station/object K9ZOG. If no packets are shown the sender has not sent any weather packets the latest 10 day(s).
| Time | Temp. | Humidity | Pressure | Rain* | Wind** | Luminosity | Snow |
|---|---|---|---|---|---|---|---|
| 1778000653 | 11.11° C | 42% | 1008.3 hPa | 0 mm | - | 270 W/m² | - |
| 1778000354 | 11.11° C | 41% | 1008.1 hPa | 0 mm | - | 284 W/m² | - |
| 1778000056 | 11.11° C | 40% | 1008 hPa | 0 mm | - | 271 W/m² | - |
| 1777999754 | 11.11° C | 42% | 1008 hPa | 0 mm | - | 249 W/m² | - |
| 1777999456 | 11.11° C | 42% | 1008.1 hPa | 0 mm | - | 240 W/m² | - |
| 1777999154 | 11.11° C | 44% | 1008 hPa | 0 mm | - | 269 W/m² | - |
| 1777998855 | 10.56° C | 43% | 1008.1 hPa | 0 mm | - | 345 W/m² | - |
| 1777998554 | 10.56° C | 43% | 1008.2 hPa | 0 mm | - | 326 W/m² | - |
| 1777998252 | 10.56° C | 41% | 1008.1 hPa | 0 mm | - | 285 W/m² | - |
| 1777997956 | 10.56° C | 41% | 1008 hPa | 0 mm | - | 284 W/m² | - |
| 1777997652 | 10.56° C | 41% | 1008.3 hPa | 0 mm | - | 368 W/m² | - |
| 1777997355 | 11.11° C | 40% | 1008.2 hPa | 0 mm | - | 293 W/m² | - |
| 1777997055 | 11.11° C | 41% | 1008.1 hPa | 0 mm | - | 606 W/m² | - |
| 1777996755 | 11.11° C | 38% | 1008.2 hPa | 0 mm | - | 343 W/m² | - |
| 1777996453 | 11.11° C | 38% | 1008.2 hPa | 0 mm | - | 566 W/m² | - |
| 1777996153 | 11.11° C | 41% | 1008.2 hPa | 0 mm | - | 435 W/m² | - |
| 1777995857 | 11.11° C | 40% | 1008.2 hPa | 0 mm | - | 509 W/m² | - |
| 1777995553 | 10.56° C | 42% | 1008.1 hPa | 0 mm | - | 686 W/m² | - |
| 1777995252 | 10.56° C | 43% | 1008.2 hPa | 0 mm | - | 425 W/m² | - |
| 1777994953 | 10.56° C | 42% | 1008.1 hPa | 0 mm | - | 670 W/m² | - |
| 1777994654 | 10.56° C | 43% | 1008 hPa | 0 mm | - | 472 W/m² | - |
| 1777994355 | 10° C | 46% | 1008 hPa | 0 mm | - | 640 W/m² | - |
| 1777994053 | 10° C | 46% | 1008.3 hPa | 0 mm | - | 536 W/m² | - |
| 1777993755 | 9.44° C | 47% | 1008.3 hPa | 0 mm | - | 532 W/m² | - |
| 1777993453 | 9.44° C | 46% | 1008.3 hPa | 0 mm | - | 398 W/m² | - |
* Rain latest hour (hover to see other rain measurements)
** Current wind speed in m/s (hover to see current wind gust speed)